Location: Berlise
(49.6641°N, 4.1077°E)
Time: 02:30:41
(UTC+00:00)

Cosmos 2237 Rocket - Pass Details

Date: 27 January 2021
Orbit: 833 x 851 km, 71.0° (Epoch: 28 February)

Event Time Altitude Azimuth Distance (km) Brightness Sun altitude
Exits shadow 05:24:39 33° 264° (W) 1,384 2.8 -19.0°
Maximum altitude 05:26:30 44° 308° (NW) 1,170 2.5 -18.7°
Drops below altitude 10° 05:31:56 10° 20° (NNE) 2,488 4.8 -17.8°
Sets 05:34:32 0° 27° (NNE) 3,429 5.6 -17.4°
